Mineralnyye Vody Airport

Jump to: basic info | weather | frequencies | runways | comments

Related pages: nearby airports | nearby navaids | notams | map

Basic information (top)

Codes: MRV URMM
Location: lon 44.225101, lat 43.081902, elev 1,054 ft / 321 m msl
Status: medium_airport
Scheduled airline service: yes
Links: Wikipedia Mobile

Weather (top)

Current conditions (rec'd 2014/09/01 23:00Z):

URMM 012300Z 11007G10MPS 9999 BKN040 21/12 Q1013 R12/70D NOSIG RMK QFE732/0976

Airport forecast (rec'd 2014/09/01 21:00Z):

TAF URMM 011955Z 0121/0221 11007G12MPS 9999 BKN020 530002 
      BECMG 0123/0124 3000 BR BKN010 
      TEMPO 0200/0206 1200 BKN004 
     FM020600 10009G14MPS 9999 BKN020 530002 
      BECMG 0215/0217 11005G10MPS

Frequencies (top)

Verify before use: may be inaccurate or out of date.

APP: 119.3 MHz (APP)
ATIS: 127.4 MHz (ATIS)
GND: 121.9 MHz (TAXIING)
RDR: 120.7 MHz (KRUG)
TWR: 128 MHz (START)

Runways (top)

12/30: 12,795 x 197 ft (3,900 x 60 m) — paved — lighted

Latest comments (top)

No comments yet for Mineralnyye Vody Airport

More... (top)

See also NOTAMs and nearby airports and navaids, or visit the Mineralnyye Vody Airport page at the main OurAirports website..